Hourly Weather Belcesti

Today, 7 May, Friday

Time Temperature Precipitation Wind Pressure Humidity
00:00 +10°C° 0 mm 1 mps 752 mmHg 80%
01:00 +10°C° 0 mm 1 mps 751 mmHg 82%
02:00 +10°C° 0 mm 1 mps 751 mmHg 84%
03:00 +10°C° 0 mm 1 mps 751 mmHg 85%
04:00 +9°C° 0 mm 1 mps 751 mmHg 87%
05:00 +9°C° 0 mm 1 mps 751 mmHg 88%
06:00 +10°C° 0 mm 2 mps 751 mmHg 82%
07:00 +12°C° 0 mm 3 mps 750 mmHg 76%
08:00 +13°C° 0 mm 4 mps 750 mmHg 69%
09:00 +15°C° 0 mm 5 mps 750 mmHg 65%
10:00 +17°C° 0 mm 6 mps 749 mmHg 60%
11:00 +20°C° 0 mm 6 mps 749 mmHg 56%
12:00 +20°C° 0 mm 6 mps 748 mmHg 54%
13:00 +21°C° 0 mm 6 mps 748 mmHg 53%
14:00 +22°C° 0 mm 6 mps 747 mmHg 51%
15:00 +21°C° 0.1 mm 5 mps 747 mmHg 56%
16:00 +20°C° 0.1 mm 4 mps 746 mmHg 61%
17:00 +19°C° 0.1 mm 4 mps 746 mmHg 65%
18:00 +18°C° 0.1 mm 3 mps 746 mmHg 70%
19:00 +17°C° 0.1 mm 2 mps 746 mmHg 74%
20:00 +16°C° 0.1 mm 2 mps 746 mmHg 78%
21:00 +15°C° 0 mm 2 mps 746 mmHg 78%
22:00 +15°C° 0 mm 2 mps 747 mmHg 78%
23:00 +15°C° 0 mm 1 mps 747 mmHg 77%

Tomorrow, 8 May, Saturday

Time Temperature Precipitation Wind Pressure Humidity
00:00 +14°C° 0.2 mm 2 mps 747 mmHg 81%
01:00 +13°C° 0.2 mm 2 mps 748 mmHg 84%
02:00 +11°C° 0.2 mm 3 mps 748 mmHg 88%
03:00 +11°C° 0.1 mm 4 mps 749 mmHg 87%
04:00 +9°C° 0.1 mm 6 mps 750 mmHg 86%
05:00 +8°C° 0.1 mm 7 mps 751 mmHg 85%
06:00 +6°C° 0 mm 7 mps 751 mmHg 81%
07:00 +6°C° 0 mm 7 mps 752 mmHg 78%
08:00 +7°C° 0 mm 6 mps 753 mmHg 74%
09:00 +8°C° 0 mm 7 mps 754 mmHg 64%
10:00 +10°C° 0 mm 7 mps 754 mmHg 54%
11:00 +12°C° 0 mm 8 mps 754 mmHg 45%
12:00 +12°C° 0 mm 8 mps 754 mmHg 43%
13:00 +13°C° 0 mm 8 mps 754 mmHg 41%
14:00 +15°C° 0 mm 8 mps 754 mmHg 40%
15:00 +13°C° 0 mm 8 mps 754 mmHg 44%
16:00 +12°C° 0 mm 8 mps 755 mmHg 47%
17:00 +12°C° 0 mm 8 mps 755 mmHg 51%
18:00 +10°C° 0 mm 6 mps 756 mmHg 54%
19:00 +9°C° 0 mm 5 mps 757 mmHg 58%
20:00 +8°C° 0 mm 3 mps 758 mmHg 61%
21:00 +7°C° 0 mm 3 mps 758 mmHg 65%
22:00 +6°C° 0 mm 2 mps 759 mmHg 69%
23:00 +6°C° 0 mm 1 mps 759 mmHg 72%

Day after tomorrow, 9 May, Sunday

Time Temperature Precipitation Wind Pressure Humidity
00:00 +6°C° 0 mm 1 mps 759 mmHg 73%
01:00 +6°C° 0 mm 1 mps 759 mmHg 74%
02:00 +6°C° 0 mm 1 mps 760 mmHg 75%
03:00 +5°C° 0 mm 1 mps 760 mmHg 76%
04:00 +5°C° 0 mm 1 mps 760 mmHg 77%
05:00 +5°C° 0 mm 1 mps 760 mmHg 78%
06:00 +7°C° 0 mm 1 mps 761 mmHg 72%
07:00 +9°C° 0 mm 1 mps 761 mmHg 65%
08:00 +11°C° 0 mm 1 mps 761 mmHg 59%
09:00 +13°C° 0 mm 1 mps 761 mmHg 53%
10:00 +14°C° 0 mm 1 mps 761 mmHg 48%
11:00 +16°C° 0 mm 1 mps 761 mmHg 42%
12:00 +16°C° 0 mm 1 mps 761 mmHg 40%
13:00 +18°C° 0 mm 1 mps 761 mmHg 38%
14:00 +19°C° 0 mm 1 mps 761 mmHg 36%
15:00 +18°C° 0 mm 2 mps 760 mmHg 37%
16:00 +17°C° 0 mm 2 mps 760 mmHg 38%
17:00 +17°C° 0 mm 3 mps 760 mmHg 39%
18:00 +14°C° 0 mm 3 mps 760 mmHg 45%
19:00 +13°C° 0 mm 3 mps 760 mmHg 51%
20:00 +12°C° 0 mm 2 mps 761 mmHg 56%
21:00 +10°C° 0 mm 2 mps 761 mmHg 56%
22:00 +10°C° 0 mm 2 mps 761 mmHg 56%
23:00 +9°C° 0 mm 2 mps 761 mmHg 57%

10 May, Monday

Time Temperature Precipitation Wind Pressure Humidity
00:00 +8°C° 0 mm 2 mps 761 mmHg 58%
01:00 +8°C° 0 mm 2 mps 761 mmHg 59%
02:00 +8°C° 0 mm 2 mps 761 mmHg 60%
03:00 +7°C° 0 mm 2 mps 760 mmHg 63%
04:00 +7°C° 0 mm 2 mps 760 mmHg 66%
05:00 +6°C° 0 mm 2 mps 760 mmHg 69%
06:00 +8°C° 0 mm 3 mps 760 mmHg 66%
07:00 +10°C° 0 mm 3 mps 761 mmHg 64%
08:00 +13°C° 0 mm 4 mps 761 mmHg 62%
09:00 +14°C° 0 mm 4 mps 761 mmHg 57%
10:00 +16°C° 0 mm 5 mps 760 mmHg 52%
11:00 +19°C° 0 mm 6 mps 760 mmHg 47%
12:00 +19°C° 0 mm 6 mps 760 mmHg 46%
13:00 +20°C° 0 mm 6 mps 759 mmHg 44%
14:00 +20°C° 0 mm 5 mps 759 mmHg 42%
15:00 +20°C° 0 mm 5 mps 759 mmHg 44%
16:00 +20°C° 0 mm 4 mps 758 mmHg 45%
17:00 +20°C° 0 mm 4 mps 758 mmHg 46%
18:00 +18°C° 0 mm 3 mps 758 mmHg 52%
19:00 +16°C° 0 mm 3 mps 758 mmHg 58%
20:00 +14°C° 0 mm 2 mps 759 mmHg 65%
21:00 +13°C° 0 mm 2 mps 759 mmHg 66%
22:00 +12°C° 0 mm 2 mps 759 mmHg 66%
23:00 +12°C° 0 mm 1 mps 759 mmHg 67%

11 May, Tuesday

Time Temperature Precipitation Wind Pressure Humidity
00:00 +11°C° 0 mm 1 mps 759 mmHg 68%
01:00 +10°C° 0 mm 1 mps 759 mmHg 69%
02:00 +10°C° 0 mm 1 mps 759 mmHg 70%
03:00 +10°C° 0 mm 1 mps 759 mmHg 72%
04:00 +9°C° 0 mm 1 mps 758 mmHg 73%
05:00 +9°C° 0 mm 1 mps 758 mmHg 75%
06:00 +11°C° 0 mm 1 mps 758 mmHg 69%
07:00 +13°C° 0 mm 1 mps 758 mmHg 63%
08:00 +15°C° 0 mm 2 mps 758 mmHg 57%
09:00 +16°C° 0 mm 2 mps 758 mmHg 52%
10:00 +18°C° 0 mm 2 mps 758 mmHg 47%
11:00 +19°C° 0 mm 2 mps 757 mmHg 43%
12:00 +20°C° 0 mm 2 mps 757 mmHg 42%
13:00 +21°C° 0 mm 2 mps 756 mmHg 42%
14:00 +21°C° 0 mm 3 mps 756 mmHg 41%
15:00 +22°C° 0 mm 3 mps 756 mmHg 43%
16:00 +23°C° 0 mm 2 mps 755 mmHg 45%
17:00 +23°C° 0 mm 2 mps 755 mmHg 47%
18:00 +20°C° 0 mm 2 mps 755 mmHg 54%
19:00 +19°C° 0 mm 1 mps 755 mmHg 61%
20:00 +15°C° 0 mm 0 mps 754 mmHg 68%
21:00 +16°C° 0 mm 1 mps 754 mmHg 72%
22:00 +15°C° 0 mm 1 mps 754 mmHg 76%
23:00 +15°C° 0 mm 1 mps 754 mmHg 80%

12 May, Wednesday

Time Temperature Precipitation Wind Pressure Humidity
00:00 +14°C° 0 mm 2 mps 754 mmHg 84%
01:00 +14°C° 0 mm 2 mps 754 mmHg 88%
02:00 +13°C° 0 mm 2 mps 753 mmHg 92%
03:00 +12°C° 0 mm 3 mps 754 mmHg 90%
04:00 +11°C° 0 mm 3 mps 754 mmHg 88%
05:00 +11°C° 0 mm 4 mps 754 mmHg 87%
06:00 +11°C° 0 mm 4 mps 754 mmHg 82%
07:00 +11°C° 0 mm 3 mps 754 mmHg 77%
08:00 +12°C° 0 mm 3 mps 754 mmHg 72%
09:00 +13°C° 0 mm 3 mps 753 mmHg 66%
10:00 +14°C° 0 mm 3 mps 753 mmHg 60%
11:00 +17°C° 0 mm 4 mps 752 mmHg 53%
12:00 +18°C° 0 mm 4 mps 752 mmHg 51%
13:00 +18°C° 0 mm 4 mps 751 mmHg 48%
14:00 +19°C° 0 mm 4 mps 751 mmHg 46%
15:00 +18°C° 0 mm 4 mps 750 mmHg 49%
16:00 +17°C° 0 mm 5 mps 750 mmHg 53%
17:00 +16°C° 0 mm 5 mps 750 mmHg 57%
18:00 +15°C° 0 mm 5 mps 749 mmHg 59%
19:00 +14°C° 0 mm 4 mps 749 mmHg 61%
20:00 +13°C° 0 mm 4 mps 749 mmHg 64%
21:00 +13°C° 0 mm 3 mps 749 mmHg 65%
22:00 +12°C° 0 mm 3 mps 749 mmHg 67%
23:00 +13°C° 0 mm 2 mps 749 mmHg 68%
Show more

We Need Your Consent

Meteoprog and our Service Providers may store and access personal data such as cookies, device identifiers or other similar technologies on your device and process such data to personalise content and ads, as well as provide social media features and to analyse the traffic.

  • Store and/or access information on your device

    Cookies, device identifiers or other information can be stored or accessed on your device for the purposes indicated above.

  • Personalised ads and content, ad and content measurement, audience insights, and products development

    Ads and content can be personalised based on a profile. More data can be added to better personalise ads and content. Ad and content performance can be measured. Insights about the audience who saw the ads and content can be derived. Such data can be used to develop or improve user’s experience, systems and software.

By clicking ‘I Agree’ you will allow the use of indicated cookies, device identifiers, web beacons or other similar technologies. Your settings can be changed in the browser on your device.

For certain purposes, legitimate interests may be relied on, rather than consent. You can read more about this in our Privacy and Cookie Policy.